Location: *
(47.6569°N, 7.4256°E)
Time: 19:37:52
(UTC+00:00)

Cosmos 1140 Rocket - Pass Details

Date: 14 December 2019
Orbit: 744 x 768 km, 74.1° (Epoch: 22 January)

Event Time Altitude Azimuth Distance (km) Brightness Sun altitude
Rises 16:42:47 0° 173° (S) 3,171 6.9 -10.3°
Reaches altitude 10° 16:45:19 10° 163° (SSE) 2,254 6.0 -10.7°
Maximum altitude 16:49:49 32° 101° (ESE) 1,258 4.2 -11.4°
Enters shadow 16:53:38 14° 44° (NE) 2,032 5.1 -12.0°
